Regional Weather Roundup
Issued by NWS

Home | Current Version | Previous Version | Text Only | Print | Product List | Glossary Off
Versions: 1 2 3 4 5 6 7 8 9 10 11 12 13 14 15 16 17 18 19 20 21 22 23 24 25 26 27 28 29 30 31 32 33 34 35 36 37 38 39 40 41 42 43 44 45 46 47 48 49 50

000
ASUS45 KBOU 040907
RWRCO

WEATHER ROUNDUP FOR COLORADO
NATIONAL WEATHER SERVICE DENVER/BOULDER CO
300 AM MDT FRI SEP 04 2015

NOTE: "FAIR" INDICATES FEW OR NO CLOUDS BELOW 12000 FEET WITH NO
SIGNIFICANT WEATHER AND/OR OBSTRUCTIONS TO VISIBILITY.

COZ001>005-013-030-031-041000-
...NORTHWEST COLORADO...

CITY           SKY/WX    TMP DP  RH WIND       PRES   REMARKS
CRAIG          CLEAR     51  44  77 VRB3      30.06R
HAYDEN         CLEAR     52  43  71 E13       30.09S
MEEKER         CLEAR     54  45  71 E7        30.07S
MOUNT WERNER   NOT AVBL
STEAMBOAT SPGS CLEAR     45  42  88 NW7       30.13S
WALDEN         CLEAR     37  36  93 E7        30.20S
$$

COZ006>008-011-041000-
...WEST CENTRAL VALLEYS...

CITY           SKY/WX    TMP DP  RH WIND       PRES   REMARKS
GRAND JUNCTION CLEAR     64  50  60 E21G28    29.95F
MONTROSE       MOCLDY    57  48  72 SE6       30.08R
EAGLE          CLEAR     46  45  93 CALM      30.19R
RIFLE          CLEAR     54  50  86 CALM      30.04S
DELTA          PTCLDY    60  50  68 NE6       30.04R
NUCLA          RAIN      66  45  45 CALM      30.12R
$$

COZ017>023-064>068-041000-
...SOUTHWEST COLORADO...

CITY           SKY/WX    TMP DP  RH WIND       PRES   REMARKS
DURANGO        MOCLDY    56  41  57 CALM      30.15S
CORTEZ         PTCLDY    59  43  55 NE8       30.09S
PAGOSA SPRINGS MOCLDY    49  42  76 CALM      30.23S
TELLURIDE      PTCLDY    52  41  65 E3        30.31F
WOLF CREEK PAS NOT AVBL
$$

COZ009-010-012-014-032>034-037-058>063-041000-
...CENTRAL COLORADO...

CITY           SKY/WX    TMP DP  RH WIND       PRES   REMARKS
ASPEN          CLEAR     44  41  89 VRB3      30.20S
BUENA VISTA    PTCLDY    45  42  88 W3        30.23S
COPPER MTN     CLEAR     46  32  57 SW7       30.47F
BERTHOUD PASS  FAIR      37  28  70 NW18G28   30.49S
COTTONWOOD PAS PTCLDY    55  37  50 N3        30.33F
GUNNISON       PTCLDY    46  43  87 CALM      30.26S
KREMMLING      FOG       41  39  93 CALM      30.22F VSB 1/2
LEADVILLE      CLEAR     36  36 100 NE3       30.33S
MONARCH PASS   MOCLDY    43  37  81 SW14      30.58S
SALIDA         PTCLDY    55  45  69 NW10      30.27S
SUNLIGHT       CLEAR     45  41  87 CALM      30.40S
WILKERSON PASS CLEAR     45  37  76 W13G22    30.43S
$$

COZ069>075-041000-
...SAN LUIS VALLEY/SANGRE DE CRISTO MOUNTAINS...

CITY           SKY/WX    TMP DP  RH WIND       PRES   REMARKS
ALAMOSA        PTCLDY    49  46  90 N3        30.21S
LA VETA PASS   PTCLDY    50  37  62 S13       30.35F
SAGUACHE       PTCLDY    48  45  87 NW9       30.24S
$$

COZ035-036-038>040-041000-
...NORTHERN COLORADO FRONT RANGE...

CITY           SKY/WX    TMP DP  RH WIND       PRES   REMARKS
DENVER INTL AP PTCLDY    54  50  86 S9        29.99R
DMNS CITY PARK   N/A     58  52  79 E9        29.98S
AURORA         PTCLDY    56  51  84 SE6       30.01S
FRONT RANGE AP NOT AVBL
ERIE MUNI ARPT CLEAR     51  49  90 CALM      29.97S
BOULDER MUN AP CLEAR     55  50  82 CALM      29.97S
CENTENNIAL     PTCLDY    58  50  75 S3        30.01F
BROOMFIELD     CLEAR     54  46  76 W6        30.00S
FORT COLLINS   CLEAR     57  48  72 E6        29.98R
LONGMONT       CLEAR     53  47  81 CALM      29.98S
$$

COZ041-046-047-076>085-087-088-041000-
...PIKES PEAK/PALMER DIVIDE AND SOUTHERN FOOTHILLS...

CITY           SKY/WX    TMP DP  RH WIND       PRES   REMARKS
COLO. SPRINGS  MOCLDY    60  48  64 NE6       30.07S
A. F. ACADEMY  PTCLDY    57  47  69 N5        30.08S
ELLICOTT       PTCLDY   N/A N/A N/A CALM      30.05S
FALCON         PTCLDY    59  45  58 MISG      30.11S
FORT CARSON    PTCLDY    58  49  71 W7        30.03S
LIMON          PTCLDY    56  53  90 NW3       30.01R
MONUMENT HILL  PTCLDY    54  45  71 SW8       30.11S
TRINIDAD       PTCLDY    58  47  66 W9        30.05S
$$

COZ042>045-048>051-090-091-041000-
...NORTHEAST COLORADO...

CITY           SKY/WX    TMP DP  RH WIND       PRES   REMARKS
GREELEY ARPT   CLEAR     52  48  87 CALM      29.96F
AKRON          CLEAR     60  53  77 W12       29.93S
BURLINGTON     PTCLDY    60  51  72 NW8       29.90F
WRAY           CLOUDY    61  58  89 SW5       29.87S
STERLING       CLEAR     55  54  94 S6        29.89F
HOLYOKE        MOCLDY    66  54  63 NW3       29.86S
FORT MORGAN    CLEAR     54  50  86 W3        29.94F
$$

COZ086-089-092>099-041000-
...SOUTHEAST COLORADO...

CITY           SKY/WX    TMP DP  RH WIND       PRES   REMARKS
PUEBLO         CLEAR     59  53  80 NW6       29.97F
LA JUNTA       CLEAR     66  51  58 W7        29.93F
LAMAR          CLEAR     63  52  67 SW5       29.88R
SPRINGFIELD      N/A     62  49  62 W7        29.94S
$$




USA.gov is the U.S. government's official web portal to all federal, state and local government web resources and services.